Time,TemperatureF,DewpointF,PressureIn,WindDirection,WindDirectionDegrees,WindSpeedMPH,WindSpeedGustMPH,Humidity,HourlyPrecipIn,Conditions,Clouds,dailyrainin,SoftwareType,DateUTC
2013-01-07 00:00:00,28.5,25.7,30.29,WSW,257,5.0,9.0,89,0.00,,,0.00,VWS V14.01,2013-01-07 05:00:00,
2013-01-07 00:01:00,28.4,25.6,30.29,West,269,3.0,9.0,89,0.00,,,0.00,VWS V14.01,2013-01-07 05:01:00,
2013-01-07 00:06:00,28.4,25.9,30.29,West,270,4.0,7.0,90,0.00,,,0.00,VWS V14.01,2013-01-07 05:06:00,
2013-01-07 00:11:00,28.3,25.8,30.30,WSW,257,6.0,7.0,90,0.00,,,0.00,VWS V14.01,2013-01-07 05:11:00,
2013-01-07 00:16:00,28.3,25.8,30.30,West,268,7.0,8.0,90,0.00,,,0.00,VWS V14.01,2013-01-07 05:16:00,
2013-01-07 00:21:00,28.2,25.6,30.29,WSW,252,5.0,9.0,90,0.00,,,0.00,VWS V14.01,2013-01-07 05:21:00,
2013-01-07 00:27:00,28.2,25.6,30.29,NW,304,4.0,9.0,90,0.00,,,0.00,VWS V14.01,2013-01-07 05:27:00,
2013-01-07 00:32:00,28.1,25.5,30.29,West,265,6.0,6.0,90,0.00,,,0.00,VWS V14.01,2013-01-07 05:32:00,
2013-01-07 00:37:00,28.0,25.5,30.29,WSW,258,6.0,9.0,90,0.00,,,0.00,VWS V14.01,2013-01-07 05:37:00,
2013-01-07 00:42:00,28.0,25.5,30.29,WSW,250,4.0,9.0,90,0.00,,,0.00,VWS V14.01,2013-01-07 05:42:00,
2013-01-07 00:47:00,28.1,25.5,30.30,West,281,5.0,9.0,90,0.00,,,0.00,VWS V14.01,2013-01-07 05:47:00,
2013-01-07 00:52:00,28.1,25.5,30.30,West,269,2.0,9.0,90,0.00,,,0.00,VWS V14.01,2013-01-07 05:52:00,
2013-01-07 00:57:00,28.1,25.5,30.30,West,263,3.0,9.0,90,0.00,,,0.00,VWS V14.01,2013-01-07 05:57:00,
2013-01-07 01:02:00,28.0,25.7,30.31,West,269,4.0,6.0,91,0.00,,,0.00,VWS V14.01,2013-01-07 06:02:00,
2013-01-07 01:07:00,28.0,25.5,30.31,West,268,3.0,6.0,90,0.00,,,0.00,VWS V14.01,2013-01-07 06:07:00,
2013-01-07 01:12:00,28.0,25.5,30.31,WSW,253,5.0,7.0,90,0.00,,,0.00,VWS V14.01,2013-01-07 06:12:00,
2013-01-07 01:17:00,28.0,25.7,30.31,West,275,6.0,7.0,91,0.00,,,0.00,VWS V14.01,2013-01-07 06:17:00,
2013-01-07 01:22:00,28.0,25.7,30.31,West,271,5.0,8.0,91,0.00,,,0.00,VWS V14.01,2013-01-07 06:22:00,
2013-01-07 01:27:00,28.0,25.7,30.32,WSW,253,3.0,8.0,91,0.00,,,0.00,VWS V14.01,2013-01-07 06:27:00,
2013-01-07 01:32:00,28.0,25.7,30.32,West,269,4.0,4.0,91,0.00,,,0.00,VWS V14.01,2013-01-07 06:32:00,
2013-01-07 01:37:00,28.0,25.7,30.32,West,262,4.0,5.0,91,0.00,,,0.00,VWS V14.01,2013-01-07 06:37:00,
2013-01-07 01:42:00,28.1,25.8,30.32,West,276,3.0,5.0,91,0.00,,,0.00,VWS V14.01,2013-01-07 06:42:00,
2013-01-07 01:47:00,28.1,25.8,30.32,WSW,243,4.0,5.0,91,0.00,,,0.00,VWS V14.01,2013-01-07 06:47:00,
2013-01-07 01:52:00,28.1,25.8,30.33,West,263,4.0,5.0,91,0.00,,,0.00,VWS V14.01,2013-01-07 06:52:00,
2013-01-07 01:58:00,28.1,25.8,30.33,West,263,4.0,6.0,91,0.00,,,0.00,VWS V14.01,2013-01-07 06:58:00,
2013-01-07 02:03:00,28.1,25.8,30.33,West,267,3.0,5.0,91,0.00,,,0.00,VWS V14.01,2013-01-07 07:03:00,
2013-01-07 02:08:00,28.1,25.8,30.33,West,264,4.0,6.0,91,0.00,,,0.00,VWS V14.01,2013-01-07 07:08:00,
2013-01-07 02:13:00,28.1,25.8,30.34,West,270,3.0,7.0,91,0.00,,,0.00,VWS V14.01,2013-01-07 07:13:00,
2013-01-07 02:18:00,28.1,25.8,30.33,WNW,282,3.0,7.0,91,0.00,,,0.00,VWS V14.01,2013-01-07 07:18:00,
2013-01-07 02:23:00,28.1,25.8,30.34,West,266,4.0,7.0,91,0.00,,,0.00,VWS V14.01,2013-01-07 07:23:00,
2013-01-07 02:28:00,28.1,25.8,30.34,West,271,4.0,7.0,91,0.00,,,0.00,VWS V14.01,2013-01-07 07:28:00,
2013-01-07 02:33:00,28.1,25.8,30.34,West,267,4.0,6.0,91,0.00,,,0.00,VWS V14.01,2013-01-07 07:33:00,
2013-01-07 02:38:00,28.1,25.8,30.34,West,264,3.0,6.0,91,0.00,,,0.00,VWS V14.01,2013-01-07 07:38:00,
2013-01-07 02:43:00,28.1,25.8,30.34,West,265,4.0,6.0,91,0.00,,,0.00,VWS V14.01,2013-01-07 07:43:00,
2013-01-07 02:48:00,28.1,26.1,30.34,West,269,3.0,6.0,92,0.00,,,0.00,VWS V14.01,2013-01-07 07:48:00,
2013-01-07 02:53:00,28.1,25.8,30.34,West,273,0.0,6.0,91,0.00,,,0.00,VWS V14.01,2013-01-07 07:53:00,
2013-01-07 02:59:00,28.1,25.8,30.35,West,265,2.0,6.0,91,0.00,,,0.00,VWS V14.01,2013-01-07 07:59:00,
2013-01-07 03:04:00,28.2,25.9,30.35,West,267,4.0,4.0,91,0.00,,,0.00,VWS V14.01,2013-01-07 08:04:00,
2013-01-07 03:09:00,28.3,26.0,30.35,WNW,286,3.0,5.0,91,0.00,,,0.00,VWS V14.01,2013-01-07 08:09:00,
2013-01-07 03:14:00,28.3,26.0,30.35,WNW,286,2.0,5.0,91,0.00,,,0.00,VWS V14.01,2013-01-07 08:14:00,
2013-01-07 03:19:00,28.3,26.0,30.35,WNW,285,1.0,5.0,91,0.00,,,0.00,VWS V14.01,2013-01-07 08:19:00,
2013-01-07 03:24:00,28.3,26.0,30.35,West,264,4.0,5.0,91,0.00,,,0.00,VWS V14.01,2013-01-07 08:24:00,
2013-01-07 03:29:00,28.4,26.1,30.35,West,281,3.0,5.0,91,0.00,,,0.00,VWS V14.01,2013-01-07 08:29:00,
2013-01-07 03:34:00,28.4,26.1,30.35,WNW,283,2.0,4.0,91,0.00,,,0.00,VWS V14.01,2013-01-07 08:34:00,
2013-01-07 03:39:00,28.5,26.2,30.36,WNW,285,2.0,4.0,91,0.00,,,0.00,VWS V14.01,2013-01-07 08:39:00,
2013-01-07 03:44:00,28.5,26.0,30.36,West,279,2.0,4.0,90,0.00,,,0.00,VWS V14.01,2013-01-07 08:44:00,
2013-01-07 03:49:00,28.5,26.0,30.36,WNW,291,2.0,4.0,90,0.00,,,0.00,VWS V14.01,2013-01-07 08:49:00,
2013-01-07 03:55:00,28.6,26.0,30.36,West,279,3.0,4.0,90,0.00,,,0.00,VWS V14.01,2013-01-07 08:55:00,
2013-01-07 04:00:00,28.5,26.0,30.36,West,263,1.0,4.0,90,0.00,,,0.00,VWS V14.01,2013-01-07 09:00:00,
2013-01-07 04:05:00,28.5,26.0,30.36,West,263,1.0,4.0,90,0.00,,,0.00,VWS V14.01,2013-01-07 09:05:00,
2013-01-07 04:10:00,28.5,26.0,30.36,West,277,3.0,4.0,90,0.00,,,0.00,VWS V14.01,2013-01-07 09:10:00,
2013-01-07 04:15:00,28.5,26.0,30.36,West,277,2.0,4.0,90,0.00,,,0.00,VWS V14.01,2013-01-07 09:15:00,
2013-01-07 04:20:00,28.6,26.0,30.36,NW,309,3.0,4.0,90,0.00,,,0.00,VWS V14.01,2013-01-07 09:20:00,
2013-01-07 04:25:00,28.6,26.0,30.36,NW,309,2.0,4.0,90,0.00,,,0.00,VWS V14.01,2013-01-07 09:25:00,
2013-01-07 04:30:00,28.5,26.0,30.36,NW,309,2.0,4.0,90,0.00,,,0.00,VWS V14.01,2013-01-07 09:30:00,
2013-01-07 04:35:00,28.5,26.2,30.36,NW,309,2.0,3.0,91,0.00,,,0.00,VWS V14.01,2013-01-07 09:35:00,
2013-01-07 04:40:00,28.4,26.1,30.37,WNW,283,2.0,3.0,91,0.00,,,0.00,VWS V14.01,2013-01-07 09:40:00,
2013-01-07 04:45:00,28.4,26.1,30.37,WNW,283,2.0,3.0,91,0.00,,,0.00,VWS V14.01,2013-01-07 09:45:00,
2013-01-07 04:50:00,28.4,26.1,30.37,West,271,2.0,4.0,91,0.00,,,0.00,VWS V14.01,2013-01-07 09:50:00,
2013-01-07 04:55:00,28.4,26.1,30.37,West,271,2.0,4.0,91,0.00,,,0.00,VWS V14.01,2013-01-07 09:55:00,
2013-01-07 05:01:00,28.4,26.1,30.38,West,267,2.0,4.0,91,0.00,,,0.00,VWS V14.01,2013-01-07 10:01:00,
2013-01-07 05:06:00,28.5,26.2,30.38,WSW,246,2.0,4.0,91,0.00,,,0.00,VWS V14.01,2013-01-07 10:06:00,
2013-01-07 05:11:00,28.5,26.2,30.37,WSW,246,2.0,4.0,91,0.00,,,0.00,VWS V14.01,2013-01-07 10:11:00,
2013-01-07 05:16:00,28.5,26.2,30.38,WSW,246,1.0,4.0,91,0.00,,,0.00,VWS V14.01,2013-01-07 10:16:00,
2013-01-07 05:21:00,28.5,26.2,30.38,WSW,246,3.0,4.0,91,0.00,,,0.00,VWS V14.01,2013-01-07 10:21:00,
2013-01-07 05:26:00,28.6,26.3,30.38,WSW,246,2.0,4.0,91,0.00,,,0.00,VWS V14.01,2013-01-07 10:26:00,
2013-01-07 05:31:00,28.5,26.2,30.38,WSW,246,3.0,4.0,91,0.00,,,0.00,VWS V14.01,2013-01-07 10:31:00,
2013-01-07 05:36:00,28.5,26.2,30.38,WSW,246,2.0,3.0,91,0.00,,,0.00,VWS V14.01,2013-01-07 10:36:00,
2013-01-07 05:41:00,28.5,26.2,30.37,SW,217,2.0,3.0,91,0.00,,,0.00,VWS V14.01,2013-01-07 10:41:00,
2013-01-07 05:46:00,28.5,26.2,30.38,SW,217,2.0,3.0,91,0.00,,,0.00,VWS V14.01,2013-01-07 10:46:00,
2013-01-07 05:51:00,28.5,26.2,30.38,SW,219,2.0,3.0,91,0.00,,,0.00,VWS V14.01,2013-01-07 10:51:00,
2013-01-07 05:56:00,28.5,26.2,30.38,SW,223,2.0,3.0,91,0.00,,,0.00,VWS V14.01,2013-01-07 10:56:00,
2013-01-07 06:01:00,28.4,26.1,30.39,SW,234,2.0,2.0,91,0.00,,,0.00,VWS V14.01,2013-01-07 11:01:00,
2013-01-07 06:07:00,28.4,26.1,30.39,SW,234,2.0,2.0,91,0.00,,,0.00,VWS V14.01,2013-01-07 11:07:00,
2013-01-07 06:12:00,28.4,26.1,30.39,SW,234,2.0,3.0,91,0.00,,,0.00,VWS V14.01,2013-01-07 11:12:00,
2013-01-07 06:17:00,28.4,26.1,30.39,SW,234,3.0,3.0,91,0.00,,,0.00,VWS V14.01,2013-01-07 11:17:00,
2013-01-07 06:22:00,28.4,26.1,30.40,SW,234,3.0,3.0,91,0.00,,,0.00,VWS V14.01,2013-01-07 11:22:00,
2013-01-07 06:27:00,28.4,26.1,30.40,SW,234,1.0,3.0,91,0.00,,,0.00,VWS V14.01,2013-01-07 11:27:00,
2013-01-07 06:32:00,28.4,26.1,30.40,SW,236,2.0,2.0,91,0.00,,,0.00,VWS V14.01,2013-01-07 11:32:00,
2013-01-07 06:37:00,28.4,26.1,30.40,WSW,238,2.0,3.0,91,0.00,,,0.00,VWS V14.01,2013-01-07 11:37:00,
2013-01-07 06:42:00,28.3,26.3,30.41,WSW,238,2.0,3.0,92,0.00,,,0.00,VWS V14.01,2013-01-07 11:42:00,
2013-01-07 06:47:00,28.3,26.0,30.41,WSW,238,2.0,3.0,91,0.00,,,0.00,VWS V14.01,2013-01-07 11:47:00,
2013-01-07 06:53:00,28.3,26.0,30.41,WSW,238,3.0,3.0,91,0.00,,,0.00,VWS V14.01,2013-01-07 11:53:00,
2013-01-07 06:58:00,28.3,26.0,30.41,SW,236,3.0,4.0,91,0.00,,,0.00,VWS V14.01,2013-01-07 11:58:00,
2013-01-07 07:03:00,28.3,26.0,30.41,SW,236,2.0,2.0,91,0.00,,,0.00,VWS V14.01,2013-01-07 12:03:00,
2013-01-07 07:08:00,28.3,26.0,30.41,WSW,237,3.0,4.0,91,0.00,,,0.00,VWS V14.01,2013-01-07 12:08:00,
2013-01-07 07:13:00,28.4,26.1,30.42,SW,236,2.0,4.0,91,0.00,,,0.00,VWS V14.01,2013-01-07 12:13:00,
2013-01-07 07:18:00,28.3,26.0,30.42,SW,236,2.0,4.0,91,0.00,,,0.00,VWS V14.01,2013-01-07 12:18:00,
2013-01-07 07:23:00,28.3,26.0,30.42,SW,236,1.0,4.0,91,0.00,,,0.00,VWS V14.01,2013-01-07 12:23:00,
2013-01-07 07:28:00,28.3,26.0,30.42,SW,236,2.0,4.0,91,0.00,,,0.00,VWS V14.01,2013-01-07 12:28:00,
2013-01-07 07:33:00,28.3,26.3,30.43,SW,236,2.0,3.0,92,0.00,,,0.00,VWS V14.01,2013-01-07 12:33:00,
2013-01-07 07:38:00,28.2,26.2,30.43,WSW,245,2.0,3.0,92,0.00,,,0.00,VWS V14.01,2013-01-07 12:38:00,
2013-01-07 07:43:00,28.2,26.2,30.43,WSW,245,2.0,3.0,92,0.00,,,0.00,VWS V14.01,2013-01-07 12:43:00,
2013-01-07 07:48:00,28.2,26.2,30.43,WSW,245,2.0,3.0,92,0.00,,,0.00,VWS V14.01,2013-01-07 12:48:00,
2013-01-07 07:53:00,28.3,26.3,30.43,WSW,248,2.0,4.0,92,0.00,,,0.00,VWS V14.01,2013-01-07 12:53:00,
2013-01-07 07:58:00,28.3,26.3,30.43,WSW,240,2.0,4.0,92,0.00,,,0.00,VWS V14.01,2013-01-07 12:58:00,
2013-01-07 08:03:00,28.3,26.3,30.43,WSW,240,3.0,3.0,92,0.00,,,0.00,VWS V14.01,2013-01-07 13:03:00,
2013-01-07 08:08:00,28.3,26.0,30.43,WSW,240,1.0,3.0,91,0.00,,,0.00,VWS V14.01,2013-01-07 13:08:00,
2013-01-07 08:14:00,28.2,25.9,30.43,WSW,240,2.0,3.0,91,0.00,,,0.00,VWS V14.01,2013-01-07 13:14:00,
2013-01-07 08:19:00,28.3,26.3,30.44,WSW,240,3.0,3.0,92,0.00,,,0.00,VWS V14.01,2013-01-07 13:19:00,
2013-01-07 08:24:00,28.3,26.0,30.44,WSW,240,3.0,3.0,91,0.00,,,0.00,VWS V14.01,2013-01-07 13:24:00,
2013-01-07 08:29:00,28.3,26.0,30.44,WSW,242,2.0,3.0,91,0.00,,,0.00,VWS V14.01,2013-01-07 13:29:00,
2013-01-07 08:34:00,28.3,26.0,30.45,WSW,242,1.0,3.0,91,0.00,,,0.00,VWS V14.01,2013-01-07 13:34:00,
2013-01-07 08:39:00,28.4,26.4,30.45,WSW,242,2.0,3.0,92,0.00,,,0.00,VWS V14.01,2013-01-07 13:39:00,
2013-01-07 08:44:00,28.4,26.4,30.45,WSW,242,3.0,3.0,92,0.00,,,0.00,VWS V14.01,2013-01-07 13:44:00,
2013-01-07 08:49:00,28.5,26.2,30.45,WSW,248,3.0,4.0,91,0.00,,,0.00,VWS V14.01,2013-01-07 13:49:00,
2013-01-07 08:54:00,28.6,26.3,30.46,WSW,249,2.0,4.0,91,0.00,,,0.00,VWS V14.01,2013-01-07 13:54:00,
2013-01-07 08:59:00,28.7,26.4,30.46,WSW,257,4.0,5.0,91,0.00,,,0.00,VWS V14.01,2013-01-07 13:59:00,
2013-01-07 09:04:00,28.8,26.5,30.46,WSW,242,3.0,3.0,91,0.00,,,0.00,VWS V14.01,2013-01-07 14:04:00,
2013-01-07 09:09:00,29.0,26.7,30.46,WSW,244,3.0,4.0,91,0.00,,,0.00,VWS V14.01,2013-01-07 14:09:00,
2013-01-07 09:14:00,29.1,26.5,30.47,WSW,246,3.0,4.0,90,0.00,,,0.00,VWS V14.01,2013-01-07 14:14:00,
2013-01-07 09:19:00,29.2,26.6,30.47,WSW,250,3.0,5.0,90,0.00,,,0.00,VWS V14.01,2013-01-07 14:19:00,
2013-01-07 09:24:00,29.3,26.7,30.46,SW,230,3.0,5.0,90,0.00,,,0.00,VWS V14.01,2013-01-07 14:24:00,
2013-01-07 09:29:00,29.4,26.8,30.47,WSW,237,3.0,5.0,90,0.00,,,0.00,VWS V14.01,2013-01-07 14:29:00,
2013-01-07 09:34:00,29.6,27.0,30.47,SW,221,4.0,4.0,90,0.00,,,0.00,VWS V14.01,2013-01-07 14:34:00,
2013-01-07 09:39:00,29.7,26.9,30.47,South,186,2.0,5.0,89,0.00,,,0.00,VWS V14.01,2013-01-07 14:39:00,
2013-01-07 09:45:00,29.9,27.1,30.48,SW,222,3.0,5.0,89,0.00,,,0.00,VWS V14.01,2013-01-07 14:45:00,
2013-01-07 09:50:00,30.0,27.2,30.48,SW,228,3.0,5.0,89,0.00,,,0.00,VWS V14.01,2013-01-07 14:50:00,
2013-01-07 09:55:00,30.1,27.3,30.48,SSW,193,2.0,5.0,89,0.00,,,0.00,VWS V14.01,2013-01-07 14:55:00,
2013-01-07 10:00:00,30.3,27.2,30.48,South,184,3.0,6.0,88,0.00,,,0.00,VWS V14.01,2013-01-07 15:00:00,
2013-01-07 10:05:00,30.2,27.1,30.48,SW,218,2.0,5.0,88,0.00,,,0.00,VWS V14.01,2013-01-07 15:05:00,
2013-01-07 10:10:00,30.3,27.2,30.48,SSW,198,4.0,6.0,88,0.00,,,0.00,VWS V14.01,2013-01-07 15:10:00,
2013-01-07 10:15:00,30.4,27.3,30.48,SW,229,3.0,7.0,88,0.00,,,0.00,VWS V14.01,2013-01-07 15:15:00,
2013-01-07 10:20:00,30.6,27.2,30.49,SW,232,3.0,7.0,87,0.00,,,0.00,VWS V14.01,2013-01-07 15:20:00,
2013-01-07 10:25:00,30.8,27.4,30.49,SW,223,1.0,7.0,87,0.00,,,0.00,VWS V14.01,2013-01-07 15:25:00,
2013-01-07 10:30:00,30.9,27.2,30.48,SW,227,3.0,7.0,86,0.00,,,0.00,VWS V14.01,2013-01-07 15:30:00,
2013-01-07 10:35:00,30.9,27.2,30.49,SW,231,4.0,7.0,86,0.00,,,0.00,VWS V14.01,2013-01-07 15:35:00,
2013-01-07 10:40:00,31.1,27.4,30.49,SW,215,4.0,7.0,86,0.00,,,0.00,VWS V14.01,2013-01-07 15:40:00,
2013-01-07 10:45:00,31.3,27.3,30.49,SW,227,4.0,7.0,85,0.00,,,0.00,VWS V14.01,2013-01-07 15:45:00,
2013-01-07 10:50:00,31.3,27.0,30.49,SW,227,5.0,7.0,84,0.00,,,0.00,VWS V14.01,2013-01-07 15:50:00,
2013-01-07 10:55:00,31.4,27.4,30.49,SSW,202,3.0,7.0,85,0.00,,,0.00,VWS V14.01,2013-01-07 15:55:00,
2013-01-07 11:00:00,31.6,27.3,30.49,SW,215,4.0,7.0,84,0.00,,,0.00,VWS V14.01,2013-01-07 16:00:00,
2013-01-07 11:05:00,31.8,27.5,30.49,SW,225,4.0,6.0,84,0.00,,,0.00,VWS V14.01,2013-01-07 16:05:00,
2013-01-07 11:10:00,32.0,27.1,30.48,SW,217,4.0,7.0,82,0.00,,,0.00,VWS V14.01,2013-01-07 16:10:00,
2013-01-07 11:15:00,32.0,27.4,30.48,South,187,4.0,7.0,83,0.00,,,0.00,VWS V14.01,2013-01-07 16:15:00,
2013-01-07 11:20:00,32.1,27.2,30.48,SW,220,3.0,7.0,82,0.00,,,0.00,VWS V14.01,2013-01-07 16:20:00,
2013-01-07 11:25:00,32.3,27.1,30.48,SSW,207,3.0,7.0,81,0.00,,,0.00,VWS V14.01,2013-01-07 16:25:00,
2013-01-07 11:30:00,32.4,26.9,30.48,SSW,210,3.0,8.0,80,0.00,,,0.00,VWS V14.01,2013-01-07 16:30:00,
2013-01-07 11:35:00,32.6,27.4,30.48,South,184,4.0,7.0,81,0.00,,,0.00,VWS V14.01,2013-01-07 16:35:00,
2013-01-07 11:41:00,32.6,27.1,30.47,WSW,247,4.0,10.0,80,0.00,,,0.00,VWS V14.01,2013-01-07 16:41:00,
2013-01-07 11:46:00,32.9,26.8,30.47,SW,221,3.0,10.0,78,0.00,,,0.00,VWS V14.01,2013-01-07 16:46:00,
2013-01-07 11:51:00,33.4,26.7,30.46,SSW,205,4.0,10.0,76,0.00,,,0.00,VWS V14.01,2013-01-07 16:51:00,
2013-01-07 11:56:00,33.8,26.7,30.46,SSW,201,4.0,10.0,75,0.00,,,0.00,VWS V14.01,2013-01-07 16:56:00,
2013-01-07 12:01:00,33.7,26.0,30.45,SW,216,4.0,11.0,73,0.00,,,0.00,VWS V14.01,2013-01-07 17:01:00,
2013-01-07 12:06:00,33.6,26.2,30.45,SW,215,8.0,10.0,74,0.00,,,0.00,VWS V14.01,2013-01-07 17:06:00,
2013-01-07 12:11:00,33.0,26.3,30.44,SSW,200,7.0,10.0,76,0.00,,,0.00,VWS V14.01,2013-01-07 17:11:00,
2013-01-07 12:16:00,33.2,26.5,30.44,South,180,4.0,10.0,76,0.00,,,0.00,VWS V14.01,2013-01-07 17:16:00,
2013-01-07 12:21:00,33.3,26.6,30.44,SSW,204,6.0,11.0,76,0.00,,,0.00,VWS V14.01,2013-01-07 17:21:00,
2013-01-07 12:26:00,32.7,25.7,30.43,SSW,195,6.0,12.0,75,0.00,,,0.00,VWS V14.01,2013-01-07 17:26:00,
2013-01-07 12:31:00,32.4,25.0,30.43,SW,217,10.0,13.0,74,0.00,,,0.00,VWS V14.01,2013-01-07 17:31:00,
2013-01-07 12:36:00,32.3,25.0,30.43,SW,216,7.0,13.0,74,0.00,,,0.00,VWS V14.01,2013-01-07 17:36:00,
2013-01-07 12:41:00,32.7,25.3,30.43,SSW,195,5.0,13.0,74,0.00,,,0.00,VWS V14.01,2013-01-07 17:41:00,
2013-01-07 12:46:00,33.2,25.8,30.43,South,188,7.0,13.0,74,0.00,,,0.00,VWS V14.01,2013-01-07 17:46:00,
2013-01-07 12:51:00,32.8,24.8,30.42,SW,217,4.0,13.0,72,0.00,,,0.00,VWS V14.01,2013-01-07 17:51:00,
2013-01-07 12:56:00,32.6,24.9,30.42,SW,223,4.0,13.0,73,0.00,,,0.00,VWS V14.01,2013-01-07 17:56:00,
2013-01-07 13:01:00,32.7,25.0,30.42,WSW,242,6.0,13.0,73,0.00,,,0.00,VWS V14.01,2013-01-07 18:01:00,
2013-01-07 13:06:00,32.9,25.5,30.42,SW,223,4.0,8.0,74,0.00,,,0.00,VWS V14.01,2013-01-07 18:06:00,
2013-01-07 13:11:00,32.8,25.4,30.42,SW,232,4.0,8.0,74,0.00,,,0.00,VWS V14.01,2013-01-07 18:11:00,
2013-01-07 13:16:00,33.0,25.6,30.42,SSW,205,5.0,8.0,74,0.00,,,0.00,VWS V14.01,2013-01-07 18:16:00,
2013-01-07 13:21:00,33.0,25.6,30.42,SSW,206,3.0,8.0,74,0.00,,,0.00,VWS V14.01,2013-01-07 18:21:00,
2013-01-07 13:26:00,33.1,25.4,30.42,SW,234,5.0,10.0,73,0.00,,,0.00,VWS V14.01,2013-01-07 18:26:00,
2013-01-07 13:31:00,33.4,25.4,30.42,WSW,246,5.0,6.0,72,0.00,,,0.00,VWS V14.01,2013-01-07 18:31:00,
2013-01-07 13:36:00,33.3,25.9,30.42,SW,231,8.0,11.0,74,0.00,,,0.00,VWS V14.01,2013-01-07 18:36:00,
2013-01-07 13:41:00,33.6,25.9,30.42,SW,236,5.0,11.0,73,0.00,,,0.00,VWS V14.01,2013-01-07 18:41:00,
2013-01-07 13:47:00,34.0,26.3,30.42,WSW,238,5.0,11.0,73,0.00,,,0.00,VWS V14.01,2013-01-07 18:47:00,
2013-01-07 13:52:00,33.9,26.2,30.42,WSW,246,5.0,11.0,73,0.00,,,0.00,VWS V14.01,2013-01-07 18:52:00,
2013-01-07 13:57:00,34.0,25.6,30.41,SW,215,4.0,11.0,71,0.00,,,0.00,VWS V14.01,2013-01-07 18:57:00,
2013-01-07 14:02:00,34.3,25.9,30.41,SSW,202,5.0,8.0,71,0.00,,FEW026,0.00,VWS V14.01,2013-01-07 19:02:00,
2013-01-07 14:07:00,34.1,25.7,30.41,SSW,207,9.0,12.0,71,0.00,,FEW026,0.00,VWS V14.01,2013-01-07 19:07:00,
2013-01-07 14:12:00,33.9,25.5,30.41,SSW,201,4.0,12.0,71,0.00,,FEW026,0.00,VWS V14.01,2013-01-07 19:12:00,
2013-01-07 14:17:00,34.2,25.5,30.41,SSW,201,7.0,12.0,70,0.00,,FEW026,0.00,VWS V14.01,2013-01-07 19:17:00,
2013-01-07 14:22:00,33.9,25.5,30.40,South,190,5.0,13.0,71,0.00,,FEW026,0.00,VWS V14.01,2013-01-07 19:22:00,
2013-01-07 14:27:00,34.0,25.9,30.40,SSW,198,5.0,13.0,72,0.00,,FEW026,0.00,VWS V14.01,2013-01-07 19:27:00,
2013-01-07 14:32:00,34.0,25.6,30.40,SW,221,4.0,6.0,71,0.00,,FEW026,0.00,VWS V14.01,2013-01-07 19:32:00,
2013-01-07 14:37:00,34.2,25.8,30.39,South,188,6.0,9.0,71,0.00,,FEW026,0.00,VWS V14.01,2013-01-07 19:37:00,
2013-01-07 14:42:00,34.3,26.2,30.39,SSW,203,7.0,9.0,72,0.00,,FEW026,0.00,VWS V14.01,2013-01-07 19:42:00,
2013-01-07 14:47:00,34.2,25.5,30.39,SSW,207,5.0,12.0,70,0.00,,FEW026,0.00,VWS V14.01,2013-01-07 19:47:00,
2013-01-07 14:52:00,34.3,25.9,30.39,South,181,7.0,12.0,71,0.00,,FEW026,0.00,VWS V14.01,2013-01-07 19:52:00,
2013-01-07 14:57:00,34.4,25.6,30.39,South,188,6.0,12.0,70,0.00,,FEW026,0.00,VWS V14.01,2013-01-07 19:57:00,
2013-01-07 15:02:00,34.5,26.1,30.39,SSW,194,6.0,6.0,71,0.00,,FEW026,0.00,VWS V14.01,2013-01-07 20:02:00,
2013-01-07 15:07:00,34.3,25.9,30.38,South,178,3.0,8.0,71,0.00,,FEW026,0.00,VWS V14.01,2013-01-07 20:07:00,
2013-01-07 15:12:00,34.4,26.0,30.38,SSW,207,5.0,10.0,71,0.00,,FEW026,0.00,VWS V14.01,2013-01-07 20:12:00,
2013-01-07 15:17:00,34.3,26.2,30.38,South,175,4.0,10.0,72,0.00,,FEW026,0.00,VWS V14.01,2013-01-07 20:17:00,
2013-01-07 15:22:00,34.2,26.1,30.38,SW,219,3.0,11.0,72,0.00,,FEW026,0.00,VWS V14.01,2013-01-07 20:22:00,
2013-01-07 15:23:00,34.2,26.1,30.38,South,176,3.0,11.0,72,0.00,,FEW026,0.00,VWS V14.01,2013-01-07 20:23:00,
2013-01-07 15:28:00,34.3,25.9,30.38,South,182,8.0,11.0,71,0.00,,FEW026,0.00,VWS V14.01,2013-01-07 20:28:00,
2013-01-07 15:33:00,34.1,25.7,30.37,SSW,200,6.0,9.0,71,0.00,,FEW026,0.00,VWS V14.01,2013-01-07 20:33:00,
2013-01-07 15:38:00,34.0,25.9,30.37,South,189,6.0,9.0,72,0.00,,FEW026,0.00,VWS V14.01,2013-01-07 20:38:00,
2013-01-07 15:43:00,33.9,25.8,30.38,South,185,8.0,10.0,72,0.00,,FEW026,0.00,VWS V14.01,2013-01-07 20:43:00,
2013-01-07 15:48:00,33.9,26.2,30.38,South,170,3.0,10.0,73,0.01,,FEW026,0.01,VWS V14.01,2013-01-07 20:48:00,
2013-01-07 15:53:00,33.8,26.1,30.38,South,180,7.0,10.0,73,0.01,,FEW026,0.01,VWS V14.01,2013-01-07 20:53:00,
2013-01-07 15:58:00,33.7,26.0,30.38,South,180,6.0,10.0,73,0.01,,FEW026,0.01,VWS V14.01,2013-01-07 20:58:00,
2013-01-07 16:03:00,33.6,25.9,30.38,South,184,3.0,7.0,73,0.01,,FEW026,0.01,VWS V14.01,2013-01-07 21:03:00,
2013-01-07 16:08:00,33.5,25.8,30.38,South,182,4.0,8.0,73,0.01,,FEW026,0.01,VWS V14.01,2013-01-07 21:08:00,
2013-01-07 16:14:00,33.3,25.9,30.38,SSW,197,4.0,10.0,74,0.01,,FEW026,0.01,VWS V14.01,2013-01-07 21:14:00,
2013-01-07 16:19:00,33.0,25.6,30.38,SSW,204,6.0,10.0,74,0.01,,FEW026,0.01,VWS V14.01,2013-01-07 21:19:00,
2013-01-07 16:24:00,32.9,25.5,30.38,South,174,6.0,10.0,74,0.01,,FEW026,0.01,VWS V14.01,2013-01-07 21:24:00,
2013-01-07 16:29:00,32.8,25.4,30.37,SSW,202,4.0,10.0,74,0.01,,FEW026,0.01,VWS V14.01,2013-01-07 21:29:00,
2013-01-07 16:34:00,32.6,25.6,30.37,SSW,213,4.0,8.0,75,0.01,,FEW026,0.01,VWS V14.01,2013-01-07 21:34:00,
2013-01-07 16:39:00,32.5,25.5,30.37,South,190,3.0,9.0,75,0.01,,FEW026,0.01,VWS V14.01,2013-01-07 21:39:00,
2013-01-07 16:44:00,32.2,25.2,30.37,South,188,5.0,10.0,75,0.01,,FEW026,0.01,VWS V14.01,2013-01-07 21:44:00,
2013-01-07 16:49:00,32.1,25.4,30.37,SSW,193,4.0,10.0,76,0.01,,FEW026,0.01,VWS V14.01,2013-01-07 21:49:00,
2013-01-07 16:54:00,31.9,25.2,30.37,SE,137,2.0,10.0,76,0.01,,FEW026,0.01,VWS V14.01,2013-01-07 21:54:00,
2013-01-07 16:59:00,31.6,25.2,30.37,South,179,3.0,10.0,77,0.01,,FEW026,0.01,VWS V14.01,2013-01-07 21:59:00,
2013-01-07 17:04:00,31.4,25.0,30.37,SSE,165,3.0,5.0,77,0.00,,CLR,0.01,VWS V14.01,2013-01-07 22:04:00,
2013-01-07 17:09:00,31.1,25.0,30.36,SSE,157,2.0,7.0,78,0.00,,CLR,0.01,VWS V14.01,2013-01-07 22:09:00,
2013-01-07 17:14:00,30.8,24.8,30.36,SSE,162,2.0,7.0,78,0.00,,CLR,0.01,VWS V14.01,2013-01-07 22:14:00,
2013-01-07 17:19:00,30.6,24.9,30.36,South,189,1.0,7.0,79,0.00,,CLR,0.01,VWS V14.01,2013-01-07 22:19:00,
2013-01-07 17:24:00,30.3,24.6,30.36,SW,224,3.0,7.0,79,0.00,,CLR,0.01,VWS V14.01,2013-01-07 22:24:00,
2013-01-07 17:30:00,30.0,24.6,30.36,SE,145,5.0,7.0,80,0.00,,CLR,0.01,VWS V14.01,2013-01-07 22:30:00,
2013-01-07 17:35:00,29.9,24.5,30.36,SSW,192,1.0,7.0,80,0.00,,CLR,0.01,VWS V14.01,2013-01-07 22:35:00,
2013-01-07 17:40:00,29.8,24.4,30.36,SSW,198,5.0,7.0,80,0.00,,CLR,0.01,VWS V14.01,2013-01-07 22:40:00,
2013-01-07 17:45:00,29.7,24.6,30.35,South,173,4.0,7.0,81,0.00,,CLR,0.01,VWS V14.01,2013-01-07 22:45:00,
2013-01-07 17:50:00,29.8,24.7,30.35,SE,140,1.0,12.0,81,0.00,,CLR,0.01,VWS V14.01,2013-01-07 22:50:00,
2013-01-07 17:55:00,30.0,24.6,30.35,SSW,196,4.0,12.0,80,0.00,,CLR,0.01,VWS V14.01,2013-01-07 22:55:00,
2013-01-07 18:00:00,29.8,24.4,30.36,SSE,167,7.0,12.0,80,0.00,,CLR,0.01,VWS V14.01,2013-01-07 23:00:00,
2013-01-07 18:05:00,29.5,24.4,30.36,South,186,3.0,9.0,81,0.00,,CLR,0.01,VWS V14.01,2013-01-07 23:05:00,
2013-01-07 18:10:00,29.2,24.1,30.36,SSW,202,2.0,9.0,81,0.00,,CLR,0.01,VWS V14.01,2013-01-07 23:10:00,
2013-01-07 18:15:00,28.9,24.1,30.36,South,190,3.0,9.0,82,0.00,,CLR,0.01,VWS V14.01,2013-01-07 23:15:00,
2013-01-07 18:20:00,28.7,23.9,30.35,SSW,206,3.0,9.0,82,0.00,,CLR,0.01,VWS V14.01,2013-01-07 23:20:00,
2013-01-07 18:25:00,28.5,23.7,30.36,SSW,206,4.0,9.0,82,0.00,,CLR,0.01,VWS V14.01,2013-01-07 23:25:00,
2013-01-07 18:30:00,28.3,23.5,30.36,South,189,4.0,9.0,82,0.00,,CLR,0.01,VWS V14.01,2013-01-07 23:30:00,
2013-01-07 18:35:00,28.0,23.5,30.35,SSW,203,2.0,7.0,83,0.00,,CLR,0.01,VWS V14.01,2013-01-07 23:35:00,
2013-01-07 18:40:00,27.9,23.4,30.35,South,170,2.0,7.0,83,0.00,,CLR,0.01,VWS V14.01,2013-01-07 23:40:00,
2013-01-07 18:45:00,27.9,23.4,30.35,SSW,198,2.0,7.0,83,0.00,,CLR,0.01,VWS V14.01,2013-01-07 23:45:00,
2013-01-07 18:50:00,27.9,23.4,30.35,SSE,165,2.0,7.0,83,0.00,,CLR,0.01,VWS V14.01,2013-01-07 23:50:00,
2013-01-07 18:55:00,28.0,23.5,30.35,South,175,3.0,8.0,83,0.00,,CLR,0.01,VWS V14.01,2013-01-07 23:55:00,
2013-01-07 19:00:00,28.1,23.6,30.35,SSW,198,3.0,8.0,83,0.00,,CLR,0.01,VWS V14.01,2013-01-08 00:00:00,
2013-01-07 19:05:00,28.0,23.5,30.35,SSW,194,2.0,7.0,83,0.00,,CLR,0.01,VWS V14.01,2013-01-08 00:05:00,
2013-01-07 19:11:00,28.0,23.5,30.35,SW,222,4.0,8.0,83,0.00,,CLR,0.01,VWS V14.01,2013-01-08 00:11:00,
2013-01-07 19:16:00,27.8,23.3,30.35,SSE,150,4.0,8.0,83,0.00,,CLR,0.01,VWS V14.01,2013-01-08 00:16:00,
2013-01-07 19:21:00,27.8,23.3,30.34,SSW,194,2.0,8.0,83,0.00,,CLR,0.01,VWS V14.01,2013-01-08 00:21:00,
2013-01-07 19:26:00,28.0,23.5,30.34,South,188,4.0,8.0,83,0.00,,CLR,0.01,VWS V14.01,2013-01-08 00:26:00,
2013-01-07 19:31:00,28.1,23.6,30.35,SSE,159,2.0,8.0,83,0.00,,CLR,0.01,VWS V14.01,2013-01-08 00:31:00,
2013-01-07 19:36:00,28.1,23.6,30.34,SSW,195,3.0,8.0,83,0.00,,CLR,0.01,VWS V14.01,2013-01-08 00:36:00,
2013-01-07 19:45:00,28.1,23.6,30.34,SSE,165,3.0,5.0,83,0.00,,,0.01,VWS V14.01,2013-01-08 00:45:00,
2013-01-07 19:50:00,28.1,23.6,30.34,South,178,4.0,8.0,83,0.00,,,0.01,VWS V14.01,2013-01-08 00:50:00,
2013-01-07 19:55:00,28.1,23.6,30.34,SSE,160,4.0,8.0,83,0.00,,,0.01,VWS V14.01,2013-01-08 00:55:00,
2013-01-07 20:00:00,28.2,23.7,30.34,South,190,4.0,10.0,83,0.00,,,0.01,VWS V14.01,2013-01-08 01:00:00,
2013-01-07 20:05:00,28.2,23.7,30.34,South,178,3.0,10.0,83,0.00,,CLR,0.01,VWS V14.01,2013-01-08 01:05:00,
2013-01-07 20:10:00,28.0,23.5,30.35,South,190,4.0,10.0,83,0.00,,CLR,0.01,VWS V14.01,2013-01-08 01:10:00,
2013-01-07 20:15:00,27.7,23.5,30.34,SSE,168,2.0,10.0,84,0.00,,CLR,0.01,VWS V14.01,2013-01-08 01:15:00,
2013-01-07 20:20:00,27.5,23.3,30.34,South,180,4.0,10.0,84,0.00,,CLR,0.01,VWS V14.01,2013-01-08 01:20:00,
2013-01-07 20:25:00,27.5,23.6,30.34,South,186,6.0,10.0,85,0.00,,CLR,0.01,VWS V14.01,2013-01-08 01:25:00,
2013-01-07 20:30:00,27.6,23.4,30.34,South,169,4.0,10.0,84,0.00,,CLR,0.01,VWS V14.01,2013-01-08 01:30:00,
2013-01-07 20:35:00,27.6,23.4,30.33,SSE,159,4.0,6.0,84,0.00,,CLR,0.01,VWS V14.01,2013-01-08 01:35:00,
2013-01-07 20:40:00,27.6,23.7,30.34,South,189,3.0,9.0,85,0.00,,CLR,0.01,VWS V14.01,2013-01-08 01:40:00,
2013-01-07 20:45:00,27.5,23.6,30.34,South,169,6.0,9.0,85,0.00,,CLR,0.01,VWS V14.01,2013-01-08 01:45:00,
2013-01-07 20:50:00,27.4,23.5,30.33,SSW,196,3.0,9.0,85,0.00,,CLR,0.01,VWS V14.01,2013-01-08 01:50:00,
2013-01-07 20:55:00,27.1,23.2,30.33,SSW,198,3.0,9.0,85,0.00,,CLR,0.01,VWS V14.01,2013-01-08 01:55:00,
2013-01-07 21:01:00,26.9,23.3,30.33,SSE,153,5.0,9.0,86,0.00,,,0.01,VWS V14.01,2013-01-08 02:01:00,
2013-01-07 21:06:00,26.7,23.1,30.33,SSE,155,3.0,8.0,86,0.00,,,0.01,VWS V14.01,2013-01-08 02:06:00,
2013-01-07 21:11:00,26.8,23.2,30.33,SSE,149,1.0,8.0,86,0.00,,,0.01,VWS V14.01,2013-01-08 02:11:00,
2013-01-07 21:16:00,26.7,23.1,30.33,SSE,162,4.0,8.0,86,0.00,,,0.01,VWS V14.01,2013-01-08 02:16:00,
2013-01-07 21:21:00,26.7,23.1,30.33,SSE,156,3.0,8.0,86,0.00,,,0.01,VWS V14.01,2013-01-08 02:21:00,
2013-01-07 21:26:00,26.6,23.0,30.33,South,170,1.0,8.0,86,0.00,,,0.01,VWS V14.01,2013-01-08 02:26:00,
2013-01-07 21:31:00,26.6,23.0,30.32,SE,126,3.0,8.0,86,0.00,,,0.01,VWS V14.01,2013-01-08 02:31:00,
2013-01-07 21:36:00,26.6,23.3,30.32,SSE,154,3.0,8.0,87,0.00,,,0.01,VWS V14.01,2013-01-08 02:36:00,
2013-01-07 21:41:00,26.6,23.3,30.32,South,189,6.0,8.0,87,0.00,,,0.01,VWS V14.01,2013-01-08 02:41:00,
2013-01-07 21:46:00,26.5,23.2,30.32,SSE,168,5.0,8.0,87,0.00,,,0.01,VWS V14.01,2013-01-08 02:46:00,
2013-01-07 21:51:00,26.5,23.2,30.32,South,171,3.0,8.0,87,0.00,,,0.01,VWS V14.01,2013-01-08 02:51:00,
2013-01-07 21:56:00,26.5,23.2,30.32,SSW,199,3.0,8.0,87,0.00,,,0.01,VWS V14.01,2013-01-08 02:56:00,
2013-01-07 22:01:00,26.3,23.0,30.32,SE,136,3.0,8.0,87,0.00,,,0.01,VWS V14.01,2013-01-08 03:01:00,
2013-01-07 22:06:00,26.3,23.2,30.31,SSE,165,3.0,6.0,88,0.00,,,0.01,VWS V14.01,2013-01-08 03:06:00,
2013-01-07 22:11:00,26.3,23.2,30.31,SE,143,2.0,7.0,88,0.00,,,0.01,VWS V14.01,2013-01-08 03:11:00,
2013-01-07 22:16:00,26.4,23.3,30.30,South,173,3.0,8.0,88,0.00,,,0.01,VWS V14.01,2013-01-08 03:16:00,
2013-01-07 22:22:00,26.3,23.2,30.31,SSW,192,4.0,10.0,88,0.00,,,0.01,VWS V14.01,2013-01-08 03:22:00,
2013-01-07 22:27:00,26.5,23.4,30.31,SSE,157,1.0,10.0,88,0.00,,,0.01,VWS V14.01,2013-01-08 03:27:00,
2013-01-07 22:32:00,26.5,23.4,30.30,SSE,153,1.0,3.0,88,0.00,,,0.01,VWS V14.01,2013-01-08 03:32:00,
2013-01-07 22:37:00,26.4,23.3,30.29,SSE,162,5.0,9.0,88,0.00,,,0.01,VWS V14.01,2013-01-08 03:37:00,
2013-01-07 22:42:00,26.3,23.0,30.29,SSE,155,2.0,9.0,87,0.00,,,0.01,VWS V14.01,2013-01-08 03:42:00,
2013-01-07 22:47:00,26.3,23.2,30.29,SSW,204,8.0,9.0,88,0.00,,,0.01,VWS V14.01,2013-01-08 03:47:00,
2013-01-07 22:52:00,26.5,23.4,30.29,SSE,151,5.0,9.0,88,0.00,,,0.01,VWS V14.01,2013-01-08 03:52:00,
2013-01-07 22:57:00,26.5,23.4,30.28,South,169,6.0,9.0,88,0.00,,,0.01,VWS V14.01,2013-01-08 03:57:00,
2013-01-07 23:02:00,26.5,23.4,30.28,SSE,147,6.0,7.0,88,0.00,,,0.01,VWS V14.01,2013-01-08 04:02:00,
2013-01-07 23:07:00,26.5,23.4,30.28,South,181,10.0,11.0,88,0.00,,,0.01,VWS V14.01,2013-01-08 04:07:00,
2013-01-07 23:12:00,26.5,23.4,30.28,SSE,155,3.0,11.0,88,0.00,,,0.01,VWS V14.01,2013-01-08 04:12:00,
2013-01-07 23:17:00,26.5,23.4,30.28,SSE,167,6.0,11.0,88,0.00,,,0.01,VWS V14.01,2013-01-08 04:17:00,
2013-01-07 23:22:00,26.5,23.4,30.28,South,183,8.0,11.0,88,0.00,,,0.01,VWS V14.01,2013-01-08 04:22:00,
2013-01-07 23:27:00,26.4,23.3,30.28,South,170,9.0,11.0,88,0.00,,,0.01,VWS V14.01,2013-01-08 04:27:00,
2013-01-07 23:32:00,26.3,23.2,30.28,SSE,167,1.0,10.0,88,0.00,,,0.01,VWS V14.01,2013-01-08 04:32:00,
2013-01-07 23:37:00,26.1,23.0,30.28,SSE,163,3.0,10.0,88,0.00,,,0.01,VWS V14.01,2013-01-08 04:37:00,
2013-01-07 23:42:00,25.9,22.8,30.28,South,180,2.0,10.0,88,0.00,,,0.01,VWS V14.01,2013-01-08 04:42:00,
2013-01-07 23:47:00,25.8,22.7,30.28,SSE,155,2.0,10.0,88,0.00,,,0.01,VWS V14.01,2013-01-08 04:47:00,
2013-01-07 23:52:00,25.7,22.6,30.28,South,178,2.0,10.0,88,0.00,,,0.01,VWS V14.01,2013-01-08 04:52:00,
2013-01-07 23:57:00,25.7,22.6,30.28,South,182,7.0,10.0,88,0.00,,,0.01,VWS V14.01,2013-01-08 04:57:00,